Location: Waning Moon II Observatory
(30.3730°N, 89.7620°W)
Time: 00:06:33
(UTC-06:00)

Daily predictions for brighter satellites

Satellite Brightness Start Highest point End
(mag) Time Altitude Azimuth Time Altitude Azimuth Time Altitude Azimuth
Atlas Centaur 2 3.7 03:19:19 49° E 03:19:19 49° E 03:25:12 10° E
SL-16 R/B 3.7 03:41:37 30° NE 03:41:37 30° NE 03:44:45 10° NNE
Cosmos 2173 Rocket 4.2 03:55:30 70° E 03:55:30 70° E 04:01:45 10° SSE
Cosmos 1459 Rocket 4.0 04:08:37 67° S 04:08:37 67° S 04:13:44 10° S
CZ-4B R/B 3.4 04:02:23 10° NNE 04:08:03 73° ESE 04:13:40 10° S
Cosmos 2278 Rocket 2.3 04:18:25 64° S 04:18:25 64° S 04:23:13 10° SSE
Cosmos 2100 Rocket 4.1 04:19:27 59° SW 04:19:27 59° SW 04:24:44 10° S
Cosmos 1802 Rocket 3.8 04:29:04 45° NNW 04:31:01 69° W 04:37:14 10° S
IRS-1C Rocket 3.9 04:25:49 10° N 04:31:05 79° WNW 04:36:19 10° SSW
ISS -2.2 04:35:31 35° ESE 04:35:31 35° ESE 04:37:36 10° SE
IDEFIX/ARIANE 42P 4.5 04:34:51 10° NE 04:39:22 30° E 04:43:51 10° SSE
Okean-O 3.8 04:36:47 10° NNE 04:41:01 43° E 04:45:13 10° S
Hubble Space Telescope 0.9 04:45:22 58° SSW 04:45:43 61° S 04:49:47 10° E
SL-08 R/B 4.4 04:39:46 10° N 04:46:11 76° W 04:52:32 10° S
Cosmos 2123 Rocket 4.0 04:42:31 10° SSW 04:48:35 57° W 04:54:43 10° N
Cosmos 1437 4.3 04:51:29 26° S 04:51:29 26° S 04:53:01 10° S
Cosmos 1486 Rocket 4.0 04:50:24 36° NW 04:52:27 63° WSW 04:57:41 10° S
CZ-2C R/B 3.7 04:50:01 10° SSE 04:54:32 82° ENE 04:58:47 11° N
Cosmos 1933 4.1 04:57:04 35° SW 04:57:04 35° SW 04:59:48 10° SSW
Cosmos 1725 Rocket 3.8 04:50:22 10° N 04:56:31 73° W 05:02:39 10° S
ASTRO E2 3.6 05:01:42 32° SW 05:02:25 35° SSW 05:06:04 10° SE
ATLAS 5 CENTAUR R/B 3.2 04:58:48 10° S 05:02:52 36° ESE 05:07:11 10° NE
Lacrosse 5 rocket 2.5 05:03:21 30° NW 05:03:21 30° NW 05:07:06 10° NNE
Meteor 2-3 Rocket 3.7 04:58:58 10° SSW 05:04:39 60° W 05:10:19 10° N
Cosmos 1825 2.9 05:01:14 10° S 05:04:55 54° E 05:08:36 10° NNE
Atlas Centaur 2 3.1 05:01:57 28° W 05:06:47 80° S 05:15:23 10° ESE
USA 32 3.9 05:01:40 10° S 05:06:51 72° W 05:12:04 10° N
Cosmos 1933 Rocket 4.0 05:03:01 10° SSW 05:07:00 36° W 05:11:04 10° NNW
Cosmos 1354 Rocket 4.0 05:02:14 10° NNW 05:07:29 86° ENE 05:12:42 10° SSE
SL-8 R/B 3.8 05:08:50 29° WSW 05:10:59 54° NW 05:15:40 10° NE
COSMO-SKYMED 1 3.1 05:07:15 10° SSE 05:11:30 59° ENE 05:15:47 10° N
Cosmos 1447 Rocket 4.4 05:05:38 10° SSW 05:11:57 71° W 05:18:15 10° N
USA 215 3.5 05:08:43 10° NE 05:15:15 72° SE 05:21:44 10° SW
Cosmos 2242 Rocket 4.3 05:19:02 24° WNW 05:20:26 29° W 05:24:15 10° SSW
SL-16 R/B 3.4 05:23:39 19° WNW 05:23:39 19° WNW 05:27:40 10° NNW
CZ-3B R/B 4.3 05:17:02 14° WSW 05:24:52 40° SSW 05:27:42 10° ESE
Cosmos 1603 3.7 05:22:42 10° SSW 05:28:12 57° WNW 05:33:47 10° N
Cosmos 2084 Rocket 4.0 05:26:01 10° NNW 05:29:45 49° ENE 05:33:32 10° SE
Cosmos 1606 3.0 05:26:45 10° N 05:30:33 70° E 05:34:21 10° SSE
Cosmos 1782 3.0 05:30:02 10° N 05:34:00 75° E 05:37:55 10° S
Cosmos 1862 Rocket 4.5 05:31:13 11° NNW 05:34:50 27° W 05:38:34 10° SSW
Delta 2 Rocket 3.7 05:46:47 12° WNW 05:50:31 63° NNE 05:55:13 10° E
Cosmos 1464 Rocket 4.3 05:44:19 10° N 05:50:37 77° E 05:56:57 10° S
Lacrosse 4 Rocket 3.4 05:47:56 10° S 05:51:59 36° ESE 05:55:58 10° NE
Cosmos 1408 3.8 05:52:18 10° SW 05:55:17 23° W 05:58:18 10° NNW
Cosmos 2369 Rocket 3.3 05:50:30 10° N 05:55:51 45° ENE 06:01:11 10° SE
Cosmos 405 Rocket 2.7 05:54:54 10° N 05:58:38 85° E 06:02:23 10° S
SKYMED 2 4.3 05:55:39 10° SSW 05:59:33 33° W 06:03:28 10° NNW
Okean 1-7 3.1 05:55:47 10° NNW 06:00:07 62° W 06:04:23 10° S
Cosmos 1862 3.3 05:56:22 10° SSW 06:00:16 61° W 06:04:12 10° N
Cosmos 1733 Rocket 3.7 06:00:13 10° S 06:04:28 62° E 06:08:45 10° NNE
NOSS 3-1 (C) 4.3 06:01:04 10° NNW 06:09:04 90° ENE 06:17:41 10° SSE
